Date String (YYYY-MM-DD hh:mm:ss) UTC,Instrument flags,absolute air pressure of the measurement (hPa),sample flow rate (lpm),inlet stack bypass flow (lpm),air temperature of the measurement (°C),ambient temperature measured by the external sensor (°C),aerosol sample conditioner tube jacket temperature (°C),OPC LED temperature (°C),internal box temperature (°C),relative humidity of the measurement (%),span deviation,mass concentration of particles derived from Lorenz-Mie calculation of OPC scattering (μg/m³),mass concentration of particles derived from Lorenz-Mie calculation of OPC scattering (μg/m³),mass concentration of particles derived from Lorenz-Mie calculation of OPC scattering (μg/m³)
DateTimeUTC,F1_M11,P_M11,Q1_M11,Q2_M11,T1_M11,T2_M11,T3_M11,T4_M11,T5_M11,U1_M11,ZSPAN_M11,X0_M11,X2_M11,X1_M11
2023-09-18 23:00:00,SystemResetWarning,0828.4,4.99,000.00,027.7,026.2,000.0,035.9,029.3,17.6,0000.0,0008.39,0003.20,0002.61
2023-09-18 23:01:00,SystemResetWarning,0828.4,5.01,000.00,027.6,024.5,000.0,035.9,028.8,17.9,0000.0,0008.33,0003.21,0002.60
2023-09-18 23:02:00,SystemResetWarning,0828.3,5.02,000.00,027.5,023.9,000.0,035.8,028.7,17.7,0000.0,0007.55,0003.20,0002.60
2023-09-18 23:03:00,SystemResetWarning,0828.4,4.99,000.00,027.4,024.2,000.0,035.8,028.8,17.5,0000.0,0007.04,0003.17,0002.58
2023-09-18 23:04:00,SystemResetWarning,0828.4,5.01,000.00,027.4,024.6,000.0,035.8,028.9,17.5,0000.0,0008.17,0003.17,0002.59
2023-09-18 23:05:00,SystemResetWarning,0828.4,5.00,000.00,027.4,025.0,000.0,035.8,029.0,18.1,0000.0,0009.09,0003.13,0002.58
2023-09-18 23:06:00,SystemResetWarning,0828.4,5.00,000.00,027.5,025.4,000.0,035.8,029.1,17.1,0000.0,0009.01,0003.11,0002.56
2023-09-18 23:07:00,SystemResetWarning,0828.4,5.01,000.00,027.5,025.8,000.0,035.8,029.2,16.5,0000.0,0009.23,0003.16,0002.55
2023-09-18 23:08:00,SystemResetWarning,0828.4,5.00,000.00,027.6,026.1,000.0,035.9,029.3,16.5,0000.0,0009.22,0003.14,0002.51
2023-09-18 23:09:00,SystemResetWarning,0828.4,5.00,000.00,027.6,026.4,000.0,035.9,029.4,16.5,0000.0,0009.19,0003.12,0002.47
2023-09-18 23:10:00,SystemResetWarning,0828.4,5.00,000.00,027.7,026.6,000.0,035.9,029.5,18.0,0000.0,0009.05,0003.10,0002.44
2023-09-18 23:11:00,SystemResetWarning,0828.4,5.00,000.00,027.7,026.7,000.0,036.0,029.5,18.7,0000.0,0008.62,0003.05,0002.40
2023-09-18 23:12:00,SystemResetWarning,0828.4,4.99,000.00,027.7,025.7,000.0,035.9,029.2,18.0,0000.0,0008.66,0003.00,0002.36
2023-09-18 23:13:00,SystemResetWarning,0828.4,5.00,000.00,027.6,024.1,000.0,035.9,028.7,17.6,0000.0,0008.69,0003.00,0002.32
2023-09-18 23:14:00,SystemResetWarning,0828.4,5.00,000.00,027.5,023.9,000.0,035.8,028.7,18.0,0000.0,0008.51,0003.01,0002.29
2023-09-18 23:15:00,SystemResetWarning,0828.4,5.01,000.00,027.4,024.2,000.0,035.8,028.8,17.6,0000.0,0007.52,0002.95,0002.26
2023-09-18 23:16:00,SystemResetWarning,0828.4,4.99,000.00,027.4,024.6,000.0,035.8,028.8,17.7,0000.0,0005.92,0002.90,0002.22
2023-09-18 23:17:00,SystemResetWarning,0828.4,5.00,000.00,027.4,025.0,000.0,035.8,029.0,17.1,0000.0,0006.15,0002.86,0002.18
2023-09-18 23:18:00,SystemResetWarning,0828.4,5.00,000.00,027.4,025.4,000.0,035.8,029.1,17.2,0000.0,0005.68,0002.72,0002.16
2023-09-18 23:19:00,SystemResetWarning,0828.4,5.02,000.00,027.5,025.7,000.0,035.8,029.2,17.3,0000.0,0005.58,0002.68,0002.17
2023-09-18 23:20:00,SystemResetWarning,0828.4,4.99,000.00,027.5,026.0,000.0,035.9,029.2,17.1,0000.0,0005.73,0002.68,0002.18
2023-09-18 23:21:00,SystemResetWarning,0828.4,4.99,000.00,027.6,026.3,000.0,035.9,029.3,17.8,0000.0,0005.85,0002.70,0002.19
2023-09-18 23:22:00,SystemResetWarning,0828.4,5.00,000.00,027.6,026.5,000.0,035.9,029.4,17.7,0000.0,0005.59,0002.71,0002.20
2023-09-18 23:23:00,SystemResetWarning,0828.4,5.01,000.00,027.7,026.7,000.0,035.9,029.5,17.3,0000.0,0005.43,0002.71,0002.20
2023-09-18 23:24:00,SystemResetWarning,0828.4,5.00,000.00,027.7,026.1,000.0,035.9,029.3,17.1,0000.0,0005.38,0002.72,0002.20
2023-09-18 23:25:00,SystemResetWarning,0828.4,5.00,000.00,027.6,024.4,000.0,035.9,028.8,17.6,0000.0,0005.30,0002.71,0002.21
2023-09-18 23:26:00,SystemResetWarning,0828.4,5.01,000.00,027.5,023.8,000.0,035.8,028.7,17.9,0000.0,0005.24,0002.70,0002.21
2023-09-18 23:27:00,SystemResetWarning,0828.4,5.01,000.00,027.4,024.1,000.0,035.8,028.8,18.1,0000.0,0005.42,0002.75,0002.23
2023-09-18 23:28:00,SystemResetWarning,0828.4,4.99,000.00,027.4,024.4,000.0,035.8,028.8,17.5,0000.0,0005.53,0002.79,0002.25
2023-09-18 23:29:00,SystemResetWarning,0828.4,5.00,000.00,027.4,024.8,000.0,035.8,028.9,17.3,0000.0,0005.70,0002.85,0002.28
2023-09-18 23:30:00,SystemResetWarning,0828.4,5.01,000.00,027.4,025.2,000.0,035.8,029.0,18.6,0000.0,0005.83,0002.88,0002.29
2023-09-18 23:31:00,SystemResetWarning,0828.4,5.00,000.00,027.4,025.6,000.0,035.8,029.1,17.4,0000.0,0005.89,0002.92,0002.30
2023-09-18 23:32:00,SystemResetWarning,0828.4,5.00,000.00,027.5,025.9,000.0,035.8,029.2,17.2,0000.0,0006.81,0002.94,0002.31
2023-09-18 23:33:00,SystemResetWarning,0828.4,4.99,000.00,027.5,026.2,000.0,035.8,029.2,18.1,0000.0,0006.76,0002.96,0002.32
2023-09-18 23:34:00,SystemResetWarning,0828.4,4.99,000.00,027.6,026.4,000.0,035.9,029.3,17.2,0000.0,0006.77,0002.98,0002.34
2023-09-18 23:35:00,SystemResetWarning,0828.4,5.01,000.00,027.6,026.6,000.0,035.9,029.4,17.1,0000.0,0006.79,0002.95,0002.35
2023-09-18 23:36:00,SystemResetWarning,0828.4,5.00,000.00,027.7,026.7,000.0,035.9,029.5,17.1,0000.0,0007.47,0002.95,0002.35
2023-09-18 23:37:00,SystemResetWarning,0828.4,4.99,000.00,027.7,025.7,000.0,035.9,029.3,17.8,0000.0,0007.62,0002.98,0002.34
2023-09-18 23:38:00,SystemResetWarning,0828.4,5.01,000.00,027.6,024.7,000.0,035.9,029.1,20.4,0000.0,0007.94,0002.95,0002.34
2023-09-18 23:39:00,SystemResetWarning,0828.4,5.01,000.00,027.6,024.8,000.0,035.8,029.1,20.9,0000.0,0007.77,0002.92,0002.32
2023-09-18 23:40:00,SystemResetWarning,0828.4,4.99,000.00,027.5,025.0,000.0,035.9,029.1,21.6,0000.0,0007.85,0002.94,0002.30
2023-09-18 23:41:00,SystemResetWarning,0828.4,4.99,000.00,027.5,025.3,000.0,035.9,029.1,21.1,0000.0,0008.24,0002.94,0002.29
2023-09-18 23:42:00,SystemResetWarning,0828.5,5.01,000.00,027.6,025.6,000.0,035.9,029.2,20.9,0000.0,0008.50,0002.94,0002.29
2023-09-18 23:43:00,SystemResetWarning,0828.5,5.01,000.00,027.6,025.9,000.0,035.9,029.3,21.0,0000.0,0008.00,0002.91,0002.28
2023-09-18 23:44:00,SystemResetWarning,0828.5,5.01,000.00,027.6,026.2,000.0,035.9,029.4,20.9,0000.0,0008.04,0002.95,0002.30
2023-09-18 23:45:00,SystemResetWarning,0828.6,4.99,000.00,027.7,026.4,000.0,036.0,029.4,21.0,0000.0,0008.03,0002.95,0002.31
2023-09-18 23:46:00,SystemResetWarning,0828.6,4.99,000.00,027.7,026.6,000.0,036.0,029.5,22.4,0000.0,0008.11,0002.96,0002.33
2023-09-18 23:47:00,SystemResetWarning,0828.6,5.00,000.00,027.8,025.9,000.0,036.0,029.3,23.9,0000.0,0008.24,0002.95,0002.35
2023-09-18 23:48:00,SystemResetWarning,0828.6,5.00,000.00,027.6,024.3,000.0,035.9,028.9,24.4,0000.0,0008.14,0002.97,0002.37
2023-09-18 23:49:00,SystemResetWarning,0828.6,5.00,000.00,027.5,023.8,000.0,035.9,028.8,24.1,0000.0,0008.02,0003.01,0002.39
2023-09-18 23:50:00,SystemResetWarning,0828.6,5.01,000.00,027.4,024.0,000.0,035.8,028.8,23.7,0000.0,0008.08,0003.04,0002.43
2023-09-18 23:51:00,SystemResetWarning,0828.7,4.99,000.00,027.4,024.4,000.0,035.8,028.8,21.9,0000.0,0008.00,0002.99,0002.46
2023-09-18 23:52:00,SystemResetWarning,0828.7,4.99,000.00,027.4,024.8,000.0,035.8,028.9,21.4,0000.0,0008.00,0003.04,0002.47
2023-09-18 23:53:00,SystemResetWarning,0828.7,5.00,000.00,027.4,025.2,000.0,035.8,029.0,20.1,0000.0,0008.99,0003.12,0002.49
2023-09-18 23:54:00,SystemResetWarning,0828.9,5.01,000.00,027.5,025.5,000.0,035.9,029.1,20.5,0000.0,0008.99,0003.15,0002.50
2023-09-18 23:55:00,SystemResetWarning,0828.9,4.99,000.00,027.5,025.8,000.0,035.9,029.2,19.3,0000.0,0009.17,0003.18,0002.50
2023-09-18 23:56:00,SystemResetWarning,0828.9,4.99,000.00,027.5,026.1,000.0,035.9,029.3,18.7,0000.0,0009.25,0003.19,0002.49
2023-09-18 23:57:00,SystemResetWarning,0829.0,5.00,000.00,027.6,026.3,000.0,035.9,029.3,18.8,0000.0,0009.27,0003.19,0002.49
2023-09-18 23:58:00,SystemResetWarning,0829.0,5.01,000.00,027.6,026.5,000.0,035.9,029.4,18.5,0000.0,0008.62,0003.20,0002.50
2023-09-18 23:59:00,SystemResetWarning,0829.0,5.01,000.00,027.7,026.6,000.0,035.9,029.5,18.5,0000.0,0008.88,0003.22,0002.53
